Regional Weather Roundup
Issued by NWS Newport/Morehead, NC

Current Version | Previous Version | Graphics & Text | Print | Product List | Glossary Off
Versions: 1 2 3 4 5 6 7 8 9 10 11 12 13 14 15 16 17 18 19 20 21 22 23 24 25 26 27 28 29 30 31 32 33 34 35 36 37 38 39 40 41 42 43 44 45 46 47 48 49 50

000
ASUS42 KMHX 241114
RWRMHX
WEATHER ROUNDUP FOR EASTERN NORTH CAROLINA
NATIONAL WEATHER SERVICE NEWPORT/MOREHEAD CITY NC
700 AM EDT WED MAY 24 2017

NOTE: "FAIR" INDICATES FEW OR NO CLOUDS BELOW 12,000 FEET
WITH NO SIGNIFICANT WEATHER AND/OR OBSTRUCTIONS TO VISIBILITY

NCZ015>017-031-032-045>047-102-103-241200-
NORTH COAST

CITY           SKY/WX    TMP DP  RH WIND       PRES   REMARKS
EDENTON        CLOUDY    65  63  94 CALM      29.67R FOG
ELIZABETH CITY CLOUDY    63  63 100 N7        29.66R
KITTY HAWK     CLOUDY    68  68 100 CALM      29.65R
MANTEO         CLOUDY    68  67  95 W5        29.66R

$$

NCZ045>047-081-094-103-104-241200-
CENTRAL COAST

CITY           SKY/WX    TMP DP  RH WIND       PRES   REMARKS
FRISCO         NOT AVBL

$$

NCZ095-097-098-100-101-241200-
SOUTHERN COAST

CITY           SKY/WX    TMP DP  RH WIND       PRES   REMARKS
BEAUFORT       CLOUDY    71  69  93 W8        29.68R
CEDAR ISLAND   NOT AVBL
JACKSONVILLE   NOT AVBL
PINEY ISLAND   CLOUDY   N/A N/A N/A W7        29.67
WILMINGTON     LGT RAIN  70  68  93 W8        29.68R


$$

NCZ011>013-027>030-043-044-078>080-089-090>093-098-241200-
COASTAL PLAIN

CITY           SKY/WX    TMP DP  RH WIND       PRES   REMARKS
AHOSKIE        DRIZZLE   61  61  99 N3        29.67S
CLINTON        PTCLDY    66  66 100 CALM      29.68S
ELIZABETHTOWN  CLOUDY    68  68 100 CALM      29.67S
GOLDSBORO      CLOUDY    67  67 100 SW5       29.66R
GREENVILLE     CLOUDY    66  66 100 W3        29.70R
HAVELOCK       CLOUDY    69  67  93 SW5       29.68S
KENANSVILLE    PTSUNNY   66  66 100 CALM      29.67S
KINSTON        CLOUDY    66  66 100 CALM      29.68R
NEW BERN       CLOUDY    68  68 100 SW3       29.69R
RICHLANDS      PTSUNNY   68  67  96 W3        29.68R
ROCKY MOUNT    CLOUDY    64  64 100 CALM      29.67R FOG
WASHINGTON     CLOUDY    66  66  98 CALM      29.66R
WHITEVILLE     PTCLDY    68  67  96 CALM      29.68R FOG

$$

AMZ130-135-150-152-154-156-158-170-250-252-270-ANZ085-086-088-633-658-670-241200-
MARINE OBSERVATIONS

STATION/POSITION TIME  TEMP    WIND        PRES    WAVE   SWELL
                       AIR SEA DIR/SP/G            HT/PER HT/PER
                 (UTC) (F)     (DEG/KT/KT) (MB)    (FT/S) (FT/S)
CHESAPEAKE LIGHT NOT AVBL
64 E VA BEACH    1050   62 64  320/  8/ 10 1004.4    5/ 7   5/ 7
DUCK             1048   62 61  360/ 11/ 13 1003.8
2 E DUCK         1100      64                N/A     3/ 5   2/11
OREGON INLET     1042   70 71  270/  8/ 11 1003.9
13E OREGON INLT  1048      65                N/A     5/ 7   5/ 7
HATTERAS CG      1048   72 73  240/  8/ 13 1004.2
DIAMOND BUOY     1050   74 74  240/ 16/ 17 1004.2    6/ 5   2/11
CAPE LOOKOUT     1100   71     280/ 11/ 12 1004.6
BEAUFORT LAB     1048   70 72  300/  5/  8 1004.2
30 SE NEW RVR IN 1008   73 76  280/ 14/ 17 1004.4
30 SE NEW RVR IN 1043      76                N/A     7/ 8   2/12
27 SE WRIGHTSVLE 1008   73 75  270/ 12/ 19 1003.7
5 SE WRIGHTSVLE  1008   71 74  270/ 10/ 16 1004.5
225 S CAPE HAT   1050   77 76  200/ 21/ 27 1010.0    8/ 6   2/11
41 SE CHARLESTON 1050   76 76  220/ 23/ 27 1005.6    8/ 7

$$




USA.gov is the U.S. government's official web portal to all federal, state and local government web resources and services.